This is the latest recevied weather packets stored in our database for station/object DH6SC. If no packets are shown the sender has not sent any weather packets the latest 10 day(s).
| Time | Temp. | Humidity | Pressure | Rain* | Wind** | Luminosity | Snow |
|---|---|---|---|---|---|---|---|
| 1777393802 | 20.56° C | 62% | 1019.1 hPa | - | - | - | - |
| 1777392600 | 20.56° C | 62% | 1018.9 hPa | - | - | - | - |
| 1777389596 | 20.56° C | 62% | 1018.7 hPa | - | - | - | - |
| 1777387792 | 20.56° C | 62% | 1018.9 hPa | - | - | - | - |
| 1777386601 | 20.56° C | 62% | 1018.8 hPa | - | - | - | - |
| 1777384173 | 20° C | 62% | 1019.1 hPa | - | - | - | - |
| 1777381196 | 20° C | 62% | 1019.4 hPa | - | - | - | - |
| 1777372202 | 18.89° C | 63% | 1020.2 hPa | - | - | - | - |
| 1777369201 | 18.89° C | 63% | 1020.5 hPa | - | - | - | - |
| 1777367991 | 18.33° C | 63% | 1020.5 hPa | - | - | - | - |
| 1777366801 | 18.33° C | 63% | 1020.5 hPa | - | - | - | - |
| 1777359000 | 18.33° C | 64% | 1020.7 hPa | - | - | - | - |
| 1777356573 | 18.33° C | 64% | 1020.7 hPa | - | - | - | - |
| 1777354788 | 18.33° C | 64% | 1020.8 hPa | - | - | - | - |
| 1777349991 | 18.33° C | 64% | 1020 hPa | - | - | - | - |
| 1777349396 | 18.33° C | 64% | 1019.9 hPa | - | - | - | - |
| 1777345800 | 18.89° C | 64% | 1020.2 hPa | - | - | - | - |
| 1777340997 | 18.89° C | 64% | 1020.2 hPa | - | - | - | - |
| 1777338596 | 19.44° C | 64% | 1020.4 hPa | - | - | - | - |
| 1777336796 | 19.44° C | 64% | 1020.4 hPa | - | - | - | - |
| 1777330782 | 19.44° C | 64% | 1020.6 hPa | - | - | - | - |
| 1777328401 | 20° C | 64% | 1020.9 hPa | - | - | - | - |
| 1777320602 | 20° C | 64% | 1021.4 hPa | - | - | - | - |
| 1777319997 | 20° C | 64% | 1021.3 hPa | - | - | - | - |
| 1777315791 | 20.56° C | 64% | 1021.2 hPa | - | - | - | - |
* Rain since midnight (hover to see other rain measurements)
** Current wind speed in m/s (hover to see current wind gust speed)